Tiempo cada hora Gogolevka

Hoy, 13 Mayo, Jueves

Tiempo Temperatura Precipitaciones Viento Presión Humedad
00:00 +16°C° 0 mm 1 mps 743 mmHg 54%
01:00 +15°C° 0 mm 1 mps 743 mmHg 55%
02:00 +15°C° 0 mm 1 mps 743 mmHg 56%
03:00 +14°C° 0 mm 1 mps 743 mmHg 57%
04:00 +14°C° 0 mm 1 mps 743 mmHg 58%
05:00 +15°C° 0 mm 1 mps 743 mmHg 56%
06:00 +16°C° 0 mm 1 mps 743 mmHg 54%
07:00 +17°C° 0 mm 2 mps 743 mmHg 52%
08:00 +19°C° 0 mm 2 mps 743 mmHg 47%
09:00 +21°C° 0 mm 2 mps 744 mmHg 42%
10:00 +24°C° 0 mm 3 mps 744 mmHg 37%
11:00 +25°C° 0 mm 3 mps 744 mmHg 34%
12:00 +25°C° 0 mm 3 mps 744 mmHg 31%
13:00 +26°C° 0 mm 3 mps 743 mmHg 29%
14:00 +26°C° 0 mm 3 mps 743 mmHg 28%
15:00 +26°C° 0 mm 3 mps 743 mmHg 28%
16:00 +27°C° 0 mm 3 mps 743 mmHg 28%
17:00 +25°C° 0 mm 3 mps 743 mmHg 33%
18:00 +24°C° 0 mm 2 mps 743 mmHg 39%
19:00 +23°C° 0 mm 2 mps 742 mmHg 44%
20:00 +21°C° 0 mm 2 mps 742 mmHg 45%
21:00 +20°C° 0 mm 2 mps 743 mmHg 46%
22:00 +18°C° 0 mm 2 mps 743 mmHg 47%
23:00 +18°C° 0 mm 2 mps 743 mmHg 48%

Mañana, 14 Mayo, Viernes

Tiempo Temperatura Precipitaciones Viento Presión Humedad
00:00 +18°C° 0 mm 1 mps 742 mmHg 50%
01:00 +18°C° 0 mm 1 mps 742 mmHg 51%
02:00 +16°C° 0 mm 1 mps 742 mmHg 52%
03:00 +16°C° 0 mm 1 mps 743 mmHg 52%
04:00 +15°C° 0 mm 1 mps 743 mmHg 53%
05:00 +18°C° 0 mm 1 mps 743 mmHg 52%
06:00 +18°C° 0 mm 2 mps 743 mmHg 50%
07:00 +19°C° 0 mm 2 mps 743 mmHg 49%
08:00 +21°C° 0 mm 3 mps 743 mmHg 45%
09:00 +22°C° 0 mm 3 mps 743 mmHg 41%
10:00 +25°C° 0 mm 4 mps 743 mmHg 37%
11:00 +26°C° 0 mm 4 mps 743 mmHg 35%
12:00 +27°C° 0 mm 4 mps 743 mmHg 32%
13:00 +28°C° 0 mm 3 mps 743 mmHg 30%
14:00 +28°C° 0 mm 3 mps 743 mmHg 30%
15:00 +28°C° 0 mm 3 mps 743 mmHg 30%
16:00 +29°C° 0 mm 3 mps 743 mmHg 30%
17:00 +27°C° 0 mm 3 mps 743 mmHg 35%
18:00 +26°C° 0 mm 2 mps 742 mmHg 40%
19:00 +25°C° 0 mm 2 mps 742 mmHg 45%
20:00 +24°C° 0 mm 2 mps 742 mmHg 45%
21:00 +23°C° 0 mm 2 mps 742 mmHg 46%
22:00 +20°C° 0 mm 2 mps 742 mmHg 47%
23:00 +20°C° 0 mm 2 mps 742 mmHg 48%

Pasado mañana, 15 Mayo, Sábado

Tiempo Temperatura Precipitaciones Viento Presión Humedad
00:00 +19°C° 0 mm 2 mps 742 mmHg 49%
01:00 +19°C° 0 mm 2 mps 742 mmHg 50%
02:00 +18°C° 0 mm 2 mps 742 mmHg 51%
03:00 +18°C° 0 mm 2 mps 742 mmHg 52%
04:00 +17°C° 0 mm 2 mps 742 mmHg 52%
05:00 +18°C° 0 mm 2 mps 742 mmHg 51%
06:00 +20°C° 0 mm 2 mps 742 mmHg 49%
07:00 +22°C° 0 mm 1 mps 742 mmHg 48%
08:00 +23°C° 0 mm 2 mps 742 mmHg 43%
09:00 +25°C° 0 mm 2 mps 742 mmHg 39%
10:00 +27°C° 0 mm 3 mps 742 mmHg 34%
11:00 +28°C° 0 mm 3 mps 742 mmHg 32%
12:00 +28°C° 0 mm 3 mps 742 mmHg 29%
13:00 +29°C° 0 mm 3 mps 742 mmHg 27%
14:00 +29°C° 0 mm 2 mps 742 mmHg 27%
15:00 +30°C° 0 mm 2 mps 741 mmHg 26%
16:00 +30°C° 0 mm 2 mps 741 mmHg 26%
17:00 +29°C° 0 mm 2 mps 741 mmHg 31%
18:00 +27°C° 0 mm 2 mps 741 mmHg 36%
19:00 +26°C° 0 mm 1 mps 740 mmHg 41%
20:00 +25°C° 0 mm 2 mps 740 mmHg 41%
21:00 +23°C° 0 mm 2 mps 740 mmHg 42%
22:00 +21°C° 0 mm 2 mps 740 mmHg 42%
23:00 +22°C° 0 mm 1 mps 740 mmHg 43%

16 Mayo, Domingo

Tiempo Temperatura Precipitaciones Viento Presión Humedad
00:00 +21°C° 0 mm 1 mps 740 mmHg 43%
01:00 +21°C° 0 mm 1 mps 740 mmHg 43%
02:00 +20°C° 0 mm 1 mps 740 mmHg 44%
03:00 +20°C° 0 mm 1 mps 740 mmHg 46%
04:00 +19°C° 0 mm 1 mps 740 mmHg 47%
05:00 +20°C° 0 mm 1 mps 740 mmHg 47%
06:00 +22°C° 0 mm 1 mps 741 mmHg 46%
07:00 +23°C° 0 mm 1 mps 741 mmHg 46%
08:00 +24°C° 0 mm 2 mps 741 mmHg 42%
09:00 +26°C° 0 mm 2 mps 741 mmHg 39%
10:00 +28°C° 0 mm 3 mps 740 mmHg 35%
11:00 +28°C° 0 mm 3 mps 740 mmHg 32%
12:00 +29°C° 0 mm 3 mps 740 mmHg 30%
13:00 +30°C° 0 mm 2 mps 740 mmHg 27%
14:00 +30°C° 0 mm 2 mps 740 mmHg 26%
15:00 +30°C° 0 mm 2 mps 740 mmHg 26%
16:00 +31°C° 0 mm 2 mps 739 mmHg 25%
17:00 +29°C° 0 mm 2 mps 739 mmHg 31%
18:00 +28°C° 0 mm 2 mps 739 mmHg 37%
19:00 +26°C° 0 mm 2 mps 738 mmHg 43%
20:00 +25°C° 0 mm 2 mps 738 mmHg 43%
21:00 +24°C° 0 mm 2 mps 738 mmHg 44%
22:00 +23°C° 0 mm 1 mps 738 mmHg 45%
23:00 +22°C° 0 mm 1 mps 738 mmHg 45%

17 Mayo, Lunes

Tiempo Temperatura Precipitaciones Viento Presión Humedad
00:00 +22°C° 0 mm 1 mps 738 mmHg 45%
01:00 +22°C° 0 mm 1 mps 738 mmHg 45%
02:00 +21°C° 0 mm 1 mps 738 mmHg 46%
03:00 +21°C° 0 mm 1 mps 738 mmHg 47%
04:00 +20°C° 0 mm 1 mps 738 mmHg 48%
05:00 +21°C° 0 mm 1 mps 738 mmHg 48%
06:00 +21°C° 0 mm 2 mps 739 mmHg 49%
07:00 +23°C° 0 mm 2 mps 739 mmHg 49%
08:00 +25°C° 0 mm 2 mps 739 mmHg 45%
09:00 +27°C° 0 mm 3 mps 739 mmHg 40%
10:00 +28°C° 0 mm 3 mps 739 mmHg 36%
11:00 +29°C° 0 mm 3 mps 739 mmHg 33%
12:00 +30°C° 0 mm 3 mps 738 mmHg 31%
13:00 +30°C° 0 mm 3 mps 738 mmHg 29%
14:00 +30°C° 0 mm 2 mps 738 mmHg 29%
15:00 +30°C° 0 mm 2 mps 738 mmHg 29%
16:00 +30°C° 0 mm 2 mps 738 mmHg 29%
17:00 +28°C° 0 mm 2 mps 737 mmHg 35%
18:00 +26°C° 0 mm 2 mps 737 mmHg 42%
19:00 +25°C° 0 mm 3 mps 737 mmHg 49%
20:00 +24°C° 0.1 mm 2 mps 737 mmHg 50%
21:00 +23°C° 0.1 mm 2 mps 737 mmHg 52%
22:00 +22°C° 0.1 mm 1 mps 737 mmHg 53%
23:00 +21°C° 0 mm 1 mps 737 mmHg 55%

18 Mayo, Martes

Tiempo Temperatura Precipitaciones Viento Presión Humedad
00:00 +21°C° 0 mm 1 mps 737 mmHg 57%
01:00 +18°C° 0 mm 0 mps 737 mmHg 59%
02:00 +18°C° 0 mm 0 mps 737 mmHg 59%
03:00 +20°C° 0 mm 1 mps 737 mmHg 59%
04:00 +19°C° 0 mm 1 mps 737 mmHg 59%
05:00 +20°C° 0 mm 1 mps 737 mmHg 58%
06:00 +21°C° 0 mm 1 mps 737 mmHg 57%
07:00 +23°C° 0 mm 1 mps 737 mmHg 56%
08:00 +24°C° 0 mm 1 mps 738 mmHg 51%
09:00 +26°C° 0 mm 1 mps 738 mmHg 47%
10:00 +27°C° 0 mm 1 mps 738 mmHg 42%
11:00 +28°C° 0 mm 2 mps 738 mmHg 39%
12:00 +29°C° 0 mm 2 mps 738 mmHg 37%
13:00 +30°C° 0 mm 2 mps 738 mmHg 34%
14:00 +30°C° 0 mm 3 mps 737 mmHg 35%
15:00 +30°C° 0 mm 3 mps 737 mmHg 36%
16:00 +29°C° 0 mm 3 mps 737 mmHg 37%
17:00 +28°C° 0 mm 3 mps 737 mmHg 44%
18:00 +27°C° 0 mm 3 mps 737 mmHg 50%
19:00 +26°C° 0 mm 3 mps 737 mmHg 57%
20:00 +24°C° 0 mm 3 mps 738 mmHg 62%
21:00 +22°C° 0 mm 3 mps 738 mmHg 66%
22:00 +20°C° 0 mm 3 mps 738 mmHg 70%
23:00 +20°C° 0 mm 3 mps 738 mmHg 69%
Mostrar más

Necesitamos Su Consentimiento

Meteoprog y nuestros Proveedores de Servicios pueden almacenar y acceder a sus datos personales como cookies, identificadores de dispositivo u otras tecnologías similares de su dispositivo y procesar dichos datos para personalizar contenido y anuncios, además de ofrecer funciones de redes sociales y analizar el tráfico.

  • Almacenar y/o acceder a información en su dispositivo

    Se puede almacenar o acceder a cookies, identificadores de dispositivo u otra información de su dispositivo para los fines anteriormente indicados.

  • Anuncios y contenido personalizados, medición de anuncios y contenido, percepciones del público, y desarrollo de productos

    Los anuncios y el contenido pueden personalizarse en base a su perfil. Se pueden añadir más datos para personalizar mejor los anuncios y contenidos. Se puede medir el rendimiento de los anuncios y contenidos. Se puede obtener la percepción sobre el público que ha visto los anuncios y contenidos. Dichos datos pueden usarse para desarrollar o mejorar la experiencia del usuario, sistemas y software.

Al hacer clic en ‘Estoy De Acuerdo’ usted permitirá el uso de las cookies, identificadores de dispositivo, balizas web u otras tecnologías similares indicadas. Su configuración puede cambiarse desde el navegador de su dispositivo.

Para ciertos fines, los intereses legítimos pueden ser considerados por encima del consentimiento. Puede leer más sobre ello en nuestra Política de Privacidad y Cookies.